Location: Marcé
(47.5801°N, 0.3280°W)
Time: 21:44:51
(UTC+01:00)

Transit 2A - Pass Details

Date: 05 December 2021
Orbit: 591 x 967 km, 66.7° (Epoch: 23 January)

Event Time Altitude Azimuth Distance (km) Brightness Sun altitude
Rises 07:44:39 0° 326° (NW) 3,643 - -8.0°
Exits shadow 07:45:37 - 329° (NNW) 3,323 8.8 -7.9°
Reaches altitude 10° 07:47:34 10° 337° (NNW) 2,711 8.4 -7.6°
Maximum altitude 07:53:08 30° 37° (NE) 1,653 7.9 -6.7°
Drops below altitude 10° 07:58:36 10° 97° (E) 2,661 10.2 -5.9°
Sets 08:01:26 0° 108° (ESE) 3,566 11.8 -5.5°
